N4XWC Weather Reports


time (UTC)temp
F
wind
direction
speed
knots
gust
knots
rain 1hr
in
rain 24hr
in
rain mn
in
humidity
%
barometer
mb
20260901104722 76 90 0.0 0.0 0.00 0.00 0.00 86 1017.9
20260901104341 76 109 0.0 0.0 0.00 0.00 0.00 86 1017.9
20260901104223 76 114 0.0 0.0 0.00 0.00 0.00 86 1017.9
20260901104157 76 109 0.0 0.0 0.00 0.00 0.00 86 1017.9
20260901103723 76 103 0.0 0.0 0.00 0.00 0.00 86 1017.9
20260901103224 76 114 0.0 0.0 0.00 0.00 0.00 86 1017.9
20260901103155 76 110 0.0 0.0 0.00 0.00 0.00 86 1017.9
20260901102722 76 112 0.0 0.0 0.00 0.00 0.00 86 1017.9
20260901102222 75 116 0.0 0.0 0.00 0.00 0.00 87 1017.9
20260901102156 75 116 0.0 0.0 0.00 0.00 0.00 87 1017.9
20260901101723 75 138 0.0 0.0 0.00 0.00 0.00 87 1017.9
20260901101223 75 131 0.0 0.0 0.00 0.00 0.00 87 1017.9
20260901101158 75 128 0.0 0.0 0.00 0.00 0.00 87 1017.9
20260901100723 75 126 0.0 0.0 0.00 0.00 0.00 87 1017.9
20260901100224 75 140 0.0 0.0 0.00 0.00 0.00 87 1017.9
20260901100156 75 141 0.0 0.0 0.00 0.00 0.00 87 1017.9
20260901095722 76 126 0.0 0.0 0.00 0.00 0.00 87 1017.7
20260901095222 76 103 0.0 0.0 0.00 0.00 0.00 87 1017.7
20260901095157 76 121 0.0 0.0 0.00 0.00 0.00 87 1017.7
20260901094723 76 117 0.0 0.0 0.00 0.00 0.00 87 1017.7
20260901094223 76 110 0.0 0.0 0.00 0.00 0.00 87 1017.6
20260901094159 76 113 0.0 0.0 0.00 0.00 0.00 87 1017.6
20260901093723 76 116 0.0 0.0 0.00 0.00 0.00 86 1017.6
20260901093224 76 124 0.0 0.0 0.00 0.00 0.00 86 1017.6
20260901093156 76 124 0.0 0.0 0.00 0.00 0.00 86 1017.6
20260901092722 76 124 0.0 0.0 0.00 0.00 0.00 86 1017.5
20260901092222 76 112 0.0 0.0 0.00 0.00 0.00 86 1017.5
20260901092159 76 119 0.0 0.0 0.00 0.00 0.00 86 1017.5
20260901091723 76 110 0.0 0.0 0.00 0.00 0.00 86 1017.5
20260901091223 76 113 0.0 0.0 0.00 0.00 0.00 86 1017.4
20260901091156 76 102 0.0 0.9 0.00 0.00 0.00 86 1017.4
20260901090724 76 93 0.0 0.9 0.00 0.00 0.00 86 1017.4
20260901090222 76 116 1.7 1.7 0.00 0.00 0.00 86 1017.4
20260901090157 76 102 0.9 1.7 0.00 0.00 0.00 86 1017.4
20260901085722 76 100 0.0 0.0 0.00 0.00 0.00 85 1017.4
20260901085223 76 95 0.0 0.9 0.00 0.00 0.00 85 1017.4
20260901085155 76 93 0.0 1.7 0.00 0.00 0.00 85 1017.4
20260901084723 77 107 0.0 0.9 0.00 0.00 0.00 85 1017.4
20260901084223 77 119 0.0 1.7 0.00 0.00 0.00 85 1017.3
20260901084157 77 103 1.7 1.7 0.00 0.00 0.00 85 1017.3
20260901083723 77 86 0.9 1.7 0.00 0.00 0.00 85 1017.3
20260901083222 77 85 1.7 1.7 0.00 0.00 0.00 85 1017.3
20260901083157 77 92 0.9 2.6 0.00 0.00 0.00 85 1017.3
20260901082722 77 119 1.7 2.6 0.00 0.00 0.00 85 1017.1
20260901082222 77 97 0.9 1.7 0.00 0.00 0.00 85 1017.1
20260901082155 77 92 0.0 1.7 0.00 0.00 0.00 85 1017.1
20260901081722 77 95 0.0 0.9 0.00 0.00 0.00 85 1017.1
20260901081222 77 100 1.7 1.7 0.00 0.00 0.00 85 1017.1
20260901081156 77 95 1.7 2.6 0.00 0.00 0.00 85 1017.1
20260901080722 77 78 1.7 2.6 0.00 0.00 0.00 85 1017.1
20260901080223 77 96 2.6 2.6 0.00 0.00 0.00 85 1017.1
20260901080156 77 85 2.6 2.6 0.00 0.00 0.00 85 1017.1
20260901075723 77 93 0.9 1.7 0.00 0.00 0.00 85 1017.1
20260901075223 77 128 1.7 1.7 0.00 0.00 0.00 85 1017.1
20260901075156 77 112 1.7 1.7 0.00 0.00 0.00 85 1017.1
20260901074724 77 119 0.9 2.6 0.00 0.00 0.00 85 1017.1
20260901074223 77 119 0.9 1.7 0.00 0.00 0.00 85 1017.1
20260901074157 77 116 0.0 1.7 0.00 0.00 0.00 85 1017.1
20260901073723 77 102 1.7 1.7 0.00 0.00 0.00 85 1017.1
20260901073224 77 88 0.9 1.7 0.00 0.00 0.00 85 1017.1
20260901073157 77 96 0.9 1.7 0.00 0.00 0.00 85 1017.1
20260901072723 77 104 1.7 1.7 0.00 0.00 0.00 85 1017.0
20260901072223 77 78 0.9 1.7 0.00 0.00 0.00 82 1017.0
20260901072157 77 90 1.7 1.7 0.00 0.00 0.00 82 1017.0
20260901071723 78 93 0.9 0.9 0.00 0.00 0.00 82 1017.0
20260901071223 78 102 0.9 0.9 0.00 0.00 0.00 82 1017.1
20260901071156 78 102 0.9 1.7 0.00 0.00 0.00 82 1017.1
20260901070722 78 78 1.7 1.7 0.00 0.00 0.00 82 1017.1
20260901070543 78 86 1.7 1.7 0.00 0.00 0.00 82 1017.1
20260901070223 78 86 1.7 1.7 0.00 0.00 0.00 82 1017.1
20260901070157 78 86 1.7 1.7 0.00 0.00 0.00 82 1017.1
20260901065723 78 100 0.9 0.9 0.00 0.00 0.00 82 1017.1
20260901065223 78 112 0.0 0.0 0.00 0.00 0.00 82 1017.1
20260901065157 78 112 0.0 1.7 0.00 0.00 0.00 82 1017.1
20260901065034 78 100 0.9 1.7 0.00 0.00 0.00 81 1017.1
20260901064534 78 103 1.7 1.7 0.00 0.00 0.00 81 1017.1
20260901064157 78 93 0.9 0.9 0.00 0.00 0.00 81 1017.2
20260901064034 78 93 0.9 0.9 0.00 0.00 0.00 81 1017.2
20260901063535 78 106 1.7 1.7 0.00 0.00 0.00 81 1017.2
20260901063158 78 93 1.7 1.7 0.00 0.00 0.00 81 1017.2
20260901063038 78 93 1.7 1.7 0.00 0.00 0.00 81 1017.2
20260901062534 78 88 0.9 1.7 0.00 0.00 0.00 82 1017.3
20260901062157 78 106 0.0 1.7 0.00 0.00 0.00 82 1017.3
20260901062033 78 83 0.9 2.6 0.00 0.00 0.00 82 1017.3
20260901061533 78 99 1.7 1.7 0.00 0.00 0.00 82 1017.3
20260901061157 78 75 0.9 1.7 0.00 0.00 0.00 82 1017.2
20260901061033 78 92 1.7 1.7 0.00 0.00 0.00 82 1017.2
20260901060534 78 100 1.7 1.7 0.00 0.00 0.00 81 1017.2
20260901060157 79 90 0.9 0.9 0.00 0.00 0.00 81 1017.2
20260901060035 79 80 0.9 0.9 0.00 0.00 0.00 81 1017.2
20260901055533 79 119 0.0 1.7 0.00 0.00 0.00 81 1017.2
20260901055156 79 79 1.7 1.7 0.00 0.00 0.00 81 1017.2
20260901055034 79 79 1.7 1.7 0.00 0.00 0.00 81 1017.2
20260901054420 79 89 1.7 2.6 0.00 0.00 0.00 81 1017.2
20260901054403 79 96 0.9 1.7 0.00 0.00 0.00 82 1017.2
20260901054157 79 96 0.9 1.7 0.00 0.00 0.00 82 1017.2
20260901053920 79 72 1.7 1.7 0.00 0.00 0.00 82 1017.2
20260901053421 79 92 0.9 2.6 0.00 0.00 0.00 83 1017.2
20260901053157 79 75 1.7 2.6 0.00 0.00 0.00 84 1017.2
20260901052919 79 79 1.7 1.7 0.00 0.00 0.00 84 1017.2
20260901052420 79 85 1.7 1.7 0.00 0.00 0.00 85 1017.3
20260901052155 79 69 0.9 1.7 0.00 0.00 0.00 85 1017.3
20260901051920 79 73 0.9 1.7 0.00 0.00 0.00 84 1017.3
20260901051421 79 90 1.7 1.7 0.00 0.00 0.00 84 1017.3
20260901051156 79 73 0.9 0.9 0.00 0.00 0.00 84 1017.3
20260901050922 79 76 0.9 0.9 0.00 0.00 0.00 84 1017.3
20260901050420 80 109 1.7 1.7 0.00 0.00 0.00 84 1017.3
20260901050158 80 88 2.6 2.6 0.00 0.00 0.00 84 1017.3
20260901045919 80 88 2.6 2.6 0.00 0.00 0.00 84 1017.3
20260901045420 80 52 1.7 2.6 0.00 0.00 0.00 85 1017.4
20260901045159 80 58 1.7 1.7 0.00 0.00 0.00 85 1017.4
20260901044920 80 85 2.6 2.6 0.00 0.00 0.00 85 1017.4
20260901044420 80 71 2.6 3.5 0.00 0.00 0.00 85 1017.4
20260901044157 80 58 0.9 2.6 0.00 0.00 0.00 85 1017.4
20260901043920 80 73 1.7 2.6 0.00 0.00 0.00 86 1017.4
20260901043419 80 82 1.7 1.7 0.00 0.00 0.00 86 1017.4
20260901043202 80 71 0.9 2.6 0.00 0.00 0.00 86 1017.4
20260901042919 80 68 0.9 1.7 0.00 0.00 0.00 85 1017.4
20260901042419 80 95 0.9 1.7 0.00 0.00 0.00 85 1017.4
20260901042202 80 76 0.0 2.6 0.00 0.00 0.00 85 1017.4
20260901041920 80 99 0.9 1.7 0.00 0.00 0.00 84 1017.4
20260901041420 80 99 0.9 1.7 0.00 0.00 0.00 84 1017.4
20260901041156 80 88 0.9 1.7 0.00 0.00 0.00 84 1017.5
20260901040920 80 93 0.9 1.7 0.00 0.00 0.00 83 1017.5
20260901040421 80 88 1.7 1.7 0.00 0.00 0.00 83 1017.5
20260901040204 80 79 0.9 1.7 0.00 0.00 0.00 82 1017.5
20260901035919 80 83 0.9 1.7 0.00 0.00 0.00 82 1017.5
20260901035419 80 86 0.9 0.9 0.00 0.00 0.00 82 1017.4
20260901035156 80 90 1.7 1.7 0.00 0.00 0.00 82 1017.4
20260901034920 80 83 1.7 1.7 0.00 0.00 0.00 82 1017.4
20260901034420 80 78 0.9 0.9 0.00 0.00 0.00 82 1017.4
20260901034156 80 82 0.9 0.9 0.00 0.00 0.00 82 1017.5
20260901033920 80 83 0.9 0.9 0.00 0.00 0.00 82 1017.5
20260901033421 80 93 1.7 1.7 0.00 0.00 0.00 81 1017.5
20260901033156 80 69 1.7 1.7 0.00 0.00 0.00 81 1017.5
20260901032920 80 92 0.9 1.7 0.00 0.00 0.00 82 1017.5
20260901032419 80 89 0.0 1.7 0.00 0.00 0.00 82 1017.5
20260901032156 80 79 1.7 1.7 0.00 0.00 0.00 82 1017.5
20260901031921 80 89 0.9 1.7 0.00 0.00 0.00 82 1017.5
20260901031419 80 86 0.9 1.7 0.00 0.00 0.00 82 1017.5
20260901031155 80 58 0.0 0.9 0.00 0.00 0.00 82 1017.6
20260901030919 80 58 0.9 0.9 0.00 0.00 0.00 82 1017.6
20260901030420 80 58 0.9 0.9 0.00 0.00 0.00 82 1017.6
20260901030156 80 73 0.9 0.9 0.00 0.00 0.00 81 1017.6
20260901025920 80 66 0.9 0.9 0.00 0.00 0.00 81 1017.6
20260901025420 80 54 1.7 1.7 0.00 0.00 0.00 81 1017.7
20260901025156 80 65 0.9 2.6 0.00 0.00 0.00 81 1017.7
20260901024920 80 79 1.7 1.7 0.00 0.00 0.00 80 1017.7
20260901024421 81 92 0.9 1.7 0.00 0.00 0.00 80 1017.7
20260901024157 81 92 1.7 1.7 0.00 0.00 0.00 80 1017.5
20260901023919 81 100 0.0 0.9 0.00 0.00 0.00 80 1017.5
20260901023419 81 103 0.9 1.7 0.00 0.00 0.00 81 1017.5
20260901023155 81 106 0.0 0.0 0.00 0.00 0.00 81 1017.5
20260901022920 81 106 0.0 0.0 0.00 0.00 0.00 81 1017.5
20260901022420 81 106 0.9 1.7 0.00 0.00 0.00 80 1017.4
20260901022156 81 106 0.9 1.7 0.00 0.00 0.00 80 1017.4
20260901021920 81 106 0.9 1.7 0.00 0.00 0.00 80 1017.4
20260901021419 81 112 1.7 1.7 0.00 0.00 0.00 80 1017.4
20260901021414 81 123 0.0 2.6 0.00 0.00 0.00 80 1017.4
20260901021157 81 123 0.0 2.6 0.00 0.00 0.00 80 1017.4
20260901020919 81 117 0.9 1.7 0.00 0.00 0.00 80 1017.4
20260901020419 81 104 0.0 0.0 0.00 0.00 0.00 80 1017.4
20260901020155 81 107 0.0 0.0 0.00 0.00 0.00 80 1017.4
20260901015920 81 107 0.0 0.0 0.00 0.00 0.00 80 1017.4
20260901015420 81 96 0.0 0.0 0.00 0.00 0.00 80 1017.2
20260901015156 82 97 0.0 0.0 0.00 0.00 0.00 80 1017.2
20260901014920 82 97 0.0 0.0 0.00 0.00 0.00 80 1017.2
20260901014419 82 88 0.0 0.0 0.00 0.00 0.00 79 1017.2
20260901014157 82 76 0.9 1.7 0.00 0.00 0.00 79 1017.0
20260901013919 82 82 0.0 0.9 0.00 0.00 0.00 79 1017.0
20260901013419 82 88 0.9 0.9 0.00 0.00 0.00 79 1017.0
20260901013155 82 107 0.0 1.7 0.00 0.00 0.00 79 1017.0
20260901012920 82 103 1.7 1.7 0.00 0.00 0.00 78 1017.0
20260901012420 82 79 0.9 1.7 0.00 0.00 0.00 78 1016.9
20260901012156 82 92 1.7 2.6 0.00 0.00 0.00 78 1016.9
20260901011920 82 90 0.0 0.9 0.00 0.00 0.00 78 1016.9
20260901011420 82 117 0.9 3.5 0.00 0.00 0.00 78 1016.9
20260901011155 82 78 0.0 1.7 0.00 0.00 0.00 78 1016.9
20260901010920 82 97 1.7 1.7 0.00 0.00 0.00 78 1016.9
20260901010419 82 69 2.6 2.6 0.00 0.00 0.00 78 1016.9
20260901010156 82 69 0.9 2.6 0.00 0.00 0.00 78 1016.9
20260901005919 82 86 2.6 2.6 0.00 0.00 0.00 78 1016.9
20260901005419 82 104 2.6 2.6 0.00 0.00 0.00 78 1016.8
20260901005156 82 99 1.7 2.6 0.00 0.00 0.00 78 1016.8
20260901004920 82 49 0.9 2.6 0.00 0.00 0.00 79 1016.8
20260901004420 82 68 1.7 2.6 0.00 0.00 0.00 79 1016.8
20260901004157 82 69 0.9 1.7 0.00 0.00 0.00 79 1016.6
20260901003920 82 76 0.9 1.7 0.00 0.00 0.00 79 1016.6
20260901003419 83 65 0.9 0.9 0.00 0.00 0.00 79 1016.6
20260901003156 83 75 0.9 1.7 0.00 0.00 0.00 79 1016.6
20260901002920 83 64 0.9 1.7 0.00 0.00 0.00 79 1016.6
20260901002420 83 64 0.9 0.9 0.00 0.00 0.00 78 1016.6
20260901002247 83 64 0.0 0.9 0.00 0.00 0.00 78 1016.6
20260901002158 83 64 0.0 0.9 0.00 0.00 0.00 78 1016.6
20260901001921 83 64 0.9 2.6 0.00 0.00 0.00 78 1016.6
20260901001419 84 55 0.9 0.9 0.00 0.00 0.00 77 1016.6
20260901001156 84 56 0.9 0.9 0.00 0.00 0.00 77 1016.7
20260901000919 84 79 0.9 0.9 0.00 0.00 0.00 77 1016.7
20260901000420 84 88 1.7 1.7 0.00 0.00 0.00 76 1016.7
20260901000156 84 80 0.9 0.9 0.00 0.00 0.00 76 1016.7
20260831235920 84 109 0.9 1.7 0.00 0.00 0.00 77 1016.7
20260831235420 85 54 0.9 1.7 0.00 0.00 0.00 76 1016.9
20260831235157 85 59 0.9 1.7 0.00 0.00 0.00 76 1016.9
20260831234920 85 68 0.0 0.9 0.00 0.00 0.00 75 1016.9
20260831234419 85 68 0.9 0.9 0.00 0.00 0.00 75 1016.9
20260831234156 85 89 0.0 0.9 0.00 0.00 0.00 74 1016.7
20260831233919 85 92 0.9 1.7 0.00 0.00 0.00 74 1016.7
20260831233420 86 64 0.9 1.7 0.00 0.00 0.00 73 1016.7
20260831233156 86 64 0.0 0.9 0.00 0.00 0.00 73 1016.7
20260831232919 86 64 0.9 0.9 0.00 0.00 0.00 73 1016.7
20260831232420 86 69 0.9 0.9 0.00 0.00 0.00 72 1016.8
20260831232157 86 69 1.7 1.7 0.00 0.00 0.00 72 1016.8
20260831231920 86 82 1.7 2.6 0.00 0.00 0.00 72 1016.8
20260831231419 86 69 1.7 1.7 0.00 0.00 0.00 71 1016.8
20260831231157 86 78 0.9 0.9 0.00 0.00 0.00 71 1016.8
20260831230919 86 86 0.0 1.7 0.00 0.00 0.00 70 1016.8
20260831230420 86 59 0.9 0.9 0.00 0.00 0.00 70 1016.8
20260831230156 86 59 0.9 0.9 0.00 0.00 0.00 70 1016.8
20260831225919 86 61 0.9 0.9 0.00 0.00 0.00 69 1016.8
20260831225421 87 73 0.0 0.9 0.00 0.00 0.00 70 1016.8
20260831225157 87 99 1.7 2.6 0.00 0.00 0.00 70 1016.8
20260831224919 87 76 0.9 2.6 0.00 0.00 0.00 69 1016.8
20260831224420 87 114 0.9 0.9 0.00 0.00 0.00 69 1016.8
20260831224155 87 127 0.9 1.7 0.00 0.00 0.00 70 1016.9
20260831223920 87 144 0.0 1.7 0.00 0.00 0.00 69 1016.9
20260831223419 87 117 2.6 2.6 0.00 0.00 0.00 70 1016.9
20260831223157 87 76 0.9 2.6 0.00 0.00 0.00 69 1016.9
20260831222920 87 80 0.9 1.7 0.00 0.00 0.00 69 1016.9
20260831222420 88 100 0.9 2.6 0.00 0.00 0.00 68 1016.9
20260831222158 88 56 1.7 1.7 0.00 0.00 0.00 69 1016.9
20260831221919 88 86 1.7 1.7 0.00 0.00 0.00 68 1016.9
20260831221420 88 86 2.6 2.6 0.00 0.00 0.00 68 1016.9
20260831221155 88 143 0.9 4.3 0.00 0.00 0.00 67 1017.0
20260831220920 88 120 0.0 3.5 0.00 0.00 0.00 67 1017.0
20260831220419 88 138 0.9 1.7 0.00 0.00 0.00 67 1017.0
20260831220157 88 79 1.7 1.7 0.00 0.00 0.00 67 1017.0
20260831215920 88 62 1.7 5.2 0.00 0.00 0.00 67 1017.0
20260831215420 88 68 1.7 2.6 0.00 0.00 0.00 65 1017.0
20260831215156 88 121 0.9 0.9 0.00 0.00 0.00 66 1017.0
20260831214920 88 131 0.0 1.7 0.00 0.00 0.00 65 1017.0
20260831214419 88 127 2.6 2.6 0.00 0.00 0.00 65 1017.0
20260831214156 88 119 1.7 2.6 0.00 0.00 0.00 64 1017.1
20260831213919 88 89 2.6 3.5 0.00 0.00 0.00 66 1017.1
20260831213420 89 76 1.7 2.6 0.00 0.00 0.00 65 1017.1
20260831213155 89 17 0.9 0.9 0.00 0.00 0.00 65 1017.1
20260831212921 89 45 0.9 1.7 0.00 0.00 0.00 65 1017.1
20260831212419 89 44 1.7 4.3 0.00 0.00 0.00 63 1017.3
20260831212156 89 64 0.0 1.7 0.00 0.00 0.00 63 1017.3
20260831211920 89 3 0.9 2.6 0.00 0.00 0.00 64 1017.3
20260831211421 90 47 2.6 4.3 0.00 0.00 0.00 63 1017.3
20260831211158 90 73 0.0 3.5 0.00 0.00 0.00 63 1017.4
20260831210919 90 106 2.6 2.6 0.00 0.00 0.00 63 1017.4
20260831210420 90 95 0.9 2.6 0.00 0.00 0.00 61 1017.4
20260831210226 90 80 0.0 0.9 0.00 0.00 0.00 60 1017.4
20260831210155 90 80 0.0 0.9 0.00 0.00 0.00 60 1017.4
20260831205921 90 78 1.7 3.5 0.00 0.00 0.00 60 1017.4
20260831205419 91 95 3.5 3.5 0.00 0.00 0.00 64 1017.4
20260831205156 91 357 0.9 1.7 0.00 0.00 0.00 63 1017.4
20260831204920 91 20 0.0 3.5 0.00 0.00 0.00 62 1017.4
20260831204420 91 126 0.9 1.7 0.00 0.00 0.00 60 1017.4
20260831204156 91 103 0.9 3.5 0.00 0.00 0.00 60 1017.4
20260831203919 91 35 4.3 4.3 0.00 0.00 0.00 60 1017.4
20260831203421 91 131 0.0 0.0 0.00 0.00 0.00 59 1017.4
20260831203200 91 124 1.7 2.6 0.00 0.00 0.00 59 1017.4
20260831202919 91 88 5.2 5.2 0.00 0.00 0.00 59 1017.4
20260831202419 91 32 2.6 4.3 0.00 0.00 0.00 60 1017.6
20260831202155 91 54 0.9 4.3 0.00 0.00 0.00 60 1017.6
20260831201920 91 25 0.9 1.7 0.00 0.00 0.00 61 1017.6
20260831201420 91 56 1.7 2.6 0.00 0.00 0.00 60 1017.6
20260831201156 91 179 0.0 3.5 0.00 0.00 0.00 62 1017.8
20260831200920 91 168 0.0 0.9 0.00 0.00 0.00 61 1017.8
20260831200421 91 128 0.9 1.7 0.00 0.00 0.00 59 1017.8
20260831200157 91 65 1.7 2.6 0.00 0.00 0.00 61 1017.8
20260831195919 91 92 0.9 1.7 0.00 0.00 0.00 60 1017.8
20260831195420 90 117 1.7 1.7 0.00 0.00 0.00 60 1017.9
20260831195156 91 13 0.0 0.9 0.00 0.00 0.00 64 1017.9
20260831194921 90 0 0.9 0.9 0.00 0.00 0.00 63 1017.9
20260831194419 90 233 0.0 0.0 0.00 0.00 0.00 62 1017.9
20260831194156 90 305 0.0 0.0 0.00 0.00 0.00 64 1018.1
20260831193920 89 298 0.0 0.9 0.00 0.00 0.00 62 1018.1
20260831193421 89 0 0.0 0.9 0.00 0.00 0.00 61 1018.1
20260831193157 89 56 1.7 2.6 0.00 0.00 0.00 65 1018.1
20260831192919 89 86 1.7 1.7 0.00 0.00 0.00 65 1018.1
20260831192420 89 73 0.9 1.7 0.00 0.00 0.00 66 1018.3
20260831192156 89 83 1.7 1.7 0.00 0.00 0.00 65 1018.3
20260831191920 89 38 0.9 4.3 0.00 0.00 0.00 65 1018.3
20260831191419 89 37 0.9 1.7 0.00 0.00 0.00 65 1018.3
20260831191156 89 102 3.5 3.5 0.00 0.00 0.00 64 1018.5
20260831190920 89 21 1.7 1.7 0.00 0.00 0.00 65 1018.5
20260831190420 88 316 0.0 1.7 0.00 0.00 0.00 64 1018.5
20260831190157 88 44 0.0 1.7 0.00 0.00 0.00 64 1018.5
20260831185919 88 66 4.3 4.3 0.00 0.00 0.00 64 1018.5
20260831185420 88 353 0.9 0.9 0.00 0.00 0.00 65 1018.6
20260831185157 88 119 0.0 0.0 0.00 0.00 0.00 65 1018.6
20260831184919 88 119 0.0 0.9 0.00 0.00 0.00 65 1018.6
20260831184420 88 97 1.7 1.7 0.00 0.00 0.00 68 1018.6
20260831184157 89 51 0.9 1.7 0.00 0.00 0.00 67 1018.8
20260831183921 89 73 1.7 2.6 0.00 0.00 0.00 66 1018.8
20260831183419 89 0 3.5 4.3 0.00 0.00 0.00 65 1018.8
20260831183156 89 40 2.6 4.3 0.00 0.00 0.00 65 1018.8
20260831182920 89 68 2.6 2.6 0.00 0.00 0.00 65 1018.8
20260831182420 89 0 1.7 3.5 0.00 0.00 0.00 66 1018.9
20260831182156 89 0 2.6 4.3 0.00 0.00 0.00 64 1018.9
20260831181920 89 34 1.7 3.5 0.00 0.00 0.00 64 1018.9
20260831181419 89 49 3.5 4.3 0.00 0.00 0.00 66 1018.9
20260831181155 89 37 3.5 4.3 0.00 0.00 0.00 66 1019.1
20260831180919 89 107 0.0 0.0 0.00 0.00 0.00 65 1019.1
20260831180420 89 147 1.7 2.6 0.00 0.00 0.00 63 1019.1
20260831180157 89 148 0.9 2.6 0.00 0.00 0.00 62 1019.1
20260831175919 89 167 1.7 3.5 0.00 0.00 0.00 61 1019.1
20260831175420 89 140 1.7 1.7 0.00 0.00 0.00 62 1019.2
20260831175307 89 168 0.0 0.9 0.00 0.00 0.00 63 1019.2
20260831175157 89 168 0.0 0.9 0.00 0.00 0.00 63 1019.2
20260831174919 89 160 1.7 1.7 0.00 0.00 0.00 67 1019.2
20260831174420 88 268 0.0 0.0 0.00 0.00 0.00 66 1019.2
20260831174155 88 261 0.0 0.0 0.00 0.00 0.00 67 1019.4
20260831173919 88 329 0.0 0.9 0.00 0.00 0.00 67 1019.4
20260831173419 88 0 0.9 1.7 0.00 0.00 0.00 65 1019.4
20260831173229 88 148 0.0 1.7 0.00 0.00 0.00 68 1019.4
20260831173156 88 148 0.0 1.7 0.00 0.00 0.00 68 1019.4
20260831172920 88 140 2.6 2.6 0.00 0.00 0.00 68 1019.4
20260831172420 88 199 0.0 0.9 0.00 0.00 0.00 68 1019.6
20260831172157 88 210 1.7 2.6 0.00 0.00 0.00 71 1019.6
20260831171919 88 206 0.0 0.0 0.00 0.00 0.00 67 1019.6
20260831171420 88 172 0.0 0.0 0.00 0.00 0.00 65 1019.6
20260831171156 88 234 0.0 0.9 0.00 0.00 0.00 65 1019.6
20260831170920 88 243 0.9 0.9 0.00 0.00 0.00 64 1019.6
20260831170419 88 219 2.6 2.6 0.00 0.00 0.00 64 1019.6
20260831170229 88 220 1.7 2.6 0.00 0.00 0.00 65 1019.6
20260831170156 88 220 1.7 2.6 0.00 0.00 0.00 65 1019.6
20260831165919 88 181 1.7 1.7 0.00 0.00 0.00 67 1019.6
20260831165419 88 152 0.0 0.9 0.00 0.00 0.00 68 1019.7
20260831165157 88 212 0.0 0.9 0.00 0.00 0.00 67 1019.7
20260831164919 88 232 0.9 1.7 0.00 0.00 0.00 66 1019.7
20260831164420 88 178 0.9 0.9 0.00 0.00 0.00 67 1019.7
20260831164156 88 271 0.0 0.0 0.00 0.00 0.00 67 1020.0
20260831163921 88 333 0.9 1.7 0.00 0.00 0.00 69 1020.0
20260831163420 88 128 0.0 0.0 0.00 0.00 0.00 67 1020.0
20260831163155 88 14 0.9 0.9 0.00 0.00 0.00 67 1020.0
20260831162920 87 244 0.0 0.9 0.00 0.00 0.00 66 1020.0
20260831162420 87 109 2.6 4.3 0.00 0.00 0.00 67 1020.0
20260831162157 87 4 0.9 0.9 0.00 0.00 0.00 72 1020.0
20260831161919 87 270 0.0 0.0 0.00 0.00 0.00 73 1020.0
20260831161420 87 301 0.9 0.9 0.00 0.00 0.00 71 1020.0
20260831161157 87 278 0.0 0.9 0.00 0.00 0.00 69 1020.1
20260831160920 87 261 0.9 1.7 0.00 0.00 0.00 69 1020.1
20260831160419 87 257 0.0 0.0 0.00 0.00 0.00 68 1020.1
20260831160156 87 185 0.0 0.0 0.00 0.00 0.00 68 1020.1
20260831155919 87 185 0.0 0.0 0.00 0.00 0.00 68 1020.1
20260831155419 87 126 0.9 0.9 0.00 0.00 0.00 67 1020.1
20260831155156 87 131 0.0 0.0 0.00 0.00 0.00 67 1020.1
20260831154920 86 131 0.9 1.7 0.00 0.00 0.00 69 1020.1
20260831154419 86 158 0.9 0.9 0.00 0.00 0.00 70 1020.1
20260831154156 86 0 0.0 1.7 0.00 0.00 0.00 70 1020.0
20260831153919 86 116 0.0 0.0 0.00 0.00 0.00 72 1020.0
20260831153420 86 322 0.0 0.0 0.00 0.00 0.00 72 1020.0
20260831153155 86 178 0.0 0.0 0.00 0.00 0.00 73 1020.0
20260831152920 86 178 0.0 0.9 0.00 0.00 0.00 73 1020.0
20260831152420 86 193 0.0 0.0 0.00 0.00 0.00 74 1020.1
20260831152155 86 193 0.0 0.0 0.00 0.00 0.00 74 1020.1
20260831151920 85 193 0.0 0.0 0.00 0.00 0.00 74 1020.1
20260831151421 85 205 0.0 0.0 0.00 0.00 0.00 76 1020.1
20260831151156 85 203 1.7 2.6 0.00 0.00 0.00 76 1020.1
20260831150919 84 107 0.0 0.0 0.00 0.00 0.00 76 1020.1
20260831150420 84 141 0.0 1.7 0.00 0.00 0.00 77 1020.1
20260831150157 84 134 2.6 2.6 0.00 0.00 0.00 80 1020.1
20260831145920 84 195 0.0 0.9 0.00 0.00 0.00 80 1020.1
20260831145420 84 234 0.0 0.9 0.00 0.00 0.00 80 1020.2
20260831145155 83 186 0.0 0.9 0.00 0.00 0.00 80 1020.2
20260831144921 83 186 0.0 0.0 0.00 0.00 0.00 81 1020.2
20260831144419 83 209 0.9 1.7 0.00 0.00 0.00 81 1020.2
20260831144157 82 229 1.7 1.7 0.00 0.00 0.00 81 1020.1
20260831143920 82 212 1.7 1.7 0.00 0.00 0.00 83 1020.1
20260831143421 82 171 0.9 1.7 0.00 0.00 0.00 84 1020.1
20260831143156 82 160 0.9 2.6 0.00 0.00 0.00 85 1020.1
20260831142919 81 148 0.0 0.0 0.00 0.00 0.00 85 1020.1
20260831142420 81 161 0.0 0.9 0.00 0.00 0.00 85 1020.1
20260831142157 81 193 0.9 2.6 0.00 0.00 0.00 86 1020.1
20260831141919 81 143 0.9 1.7 0.00 0.00 0.00 86 1020.1
20260831141420 80 168 0.0 0.0 0.00 0.00 0.00 86 1020.1
20260831141156 80 109 0.0 1.7 0.00 0.00 0.00 87 1020.2
20260831140921 80 150 0.9 1.7 0.00 0.00 0.00 87 1020.2
20260831140419 80 145 0.0 0.0 0.00 0.00 0.00 88 1020.2
20260831140158 80 145 0.0 0.9 0.00 0.00 0.00 88 1020.2
20260831135920 80 131 0.0 0.0 0.00 0.00 0.00 88 1020.2
20260831135421 79 185 0.0 1.7 0.00 0.00 0.00 89 1020.2
20260831135156 79 203 0.0 0.0 0.00 0.00 0.00 89 1020.2
20260831134920 79 179 0.0 0.0 0.00 0.00 0.00 89 1020.2
20260831134419 79 217 0.0 0.9 0.00 0.00 0.00 89 1020.2
20260831134156 79 165 0.9 2.6 0.00 0.00 0.00 90 1020.3
20260831133919 78 203 0.0 0.0 0.00 0.00 0.00 90 1020.3
20260831133420 78 182 0.0 1.7 0.00 0.00 0.00 91 1020.3
20260831133155 78 161 0.9 2.6 0.00 0.00 0.00 92 1020.3
20260831132919 78 121 0.9 0.9 0.00 0.00 0.00 92 1020.3
20260831132419 77 141 2.6 2.6 0.00 0.00 0.00 94 1020.2
20260831132157 77 164 0.9 1.7 0.00 0.00 0.00 95 1020.2
20260831131919 77 145 2.6 2.6 0.00 0.00 0.00 95 1020.2
20260831131420 76 128 0.0 2.6 0.00 0.00 0.00 97 1020.2
20260831131155 76 100 1.7 1.7 0.00 0.00 0.00 98 1020.1
20260831130920 76 89 3.5 3.5 0.00 0.00 0.00 98 1020.1
20260831130419 76 168 0.0 1.7 0.00 0.00 0.00 99 1020.1
20260831130159 75 136 0.0 0.9 0.00 0.00 0.00 100 1020.1
20260831125920 75 123 0.0 1.7 0.00 0.00 0.00 100 1020.1
20260831125419 75 131 0.9 3.5 0.00 0.00 0.00 100 1020.1
20260831125157 75 117 0.9 2.6 0.00 0.00 0.00 100 1020.1
20260831124920 75 167 0.0 2.6 0.00 0.00 0.00 100 1020.1
20260831124419 74 131 2.6 2.6 0.00 0.00 0.00 100 1020.1
20260831124156 74 154 1.7 1.7 0.00 0.00 0.00 100 1019.9
20260831123919 74 164 0.0 1.7 0.00 0.00 0.00 100 1019.9
20260831123420 74 164 1.7 2.6 0.00 0.00 0.00 100 1019.9
20260831123200 74 134 1.7 2.6 0.00 0.00 0.00 100 1019.9
20260831122921 74 138 0.0 1.7 0.00 0.00 0.00 100 1019.9
20260831122419 73 148 0.0 0.9 0.00 0.00 0.00 100 1019.6
20260831122156 73 150 0.0 0.0 0.00 0.00 0.00 100 1019.6
20260831121920 73 134 0.0 0.9 0.00 0.00 0.00 100 1019.6
20260831121420 73 120 0.0 0.0 0.00 0.00 0.00 100 1019.6
20260831121158 73 117 0.0 0.0 0.00 0.00 0.00 100 1019.5
20260831120920 73 120 0.9 0.9 0.00 0.00 0.00 100 1019.5
20260831120421 72 114 0.0 0.0 0.00 0.00 0.00 100 1019.5
20260831120156 72 117 0.9 0.9 0.00 0.00 0.00 100 1019.5
20260831115919 72 130 0.9 0.9 0.00 0.00 0.00 100 1019.5
20260831115419 72 124 0.9 2.6 0.00 0.00 0.00 100 1019.2
20260831115158 72 162 0.0 1.7 0.00 0.00 0.00 100 1019.2
20260831114920 72 126 0.9 1.7 0.00 0.00 0.00 100 1019.2
20260831114420 72 121 0.9 1.7 0.00 0.00 0.00 100 1019.2
20260831114200 72 143 0.9 0.9 0.00 0.00 0.00 100 1019.0
20260831113919 72 151 0.9 1.7 0.00 0.00 0.00 100 1019.0
20260831113420 72 150 0.9 0.9 0.00 0.00 0.00 100 1019.0
20260831113157 72 147 0.9 0.9 0.00 0.00 0.00 100 1019.0
20260831112920 72 161 0.9 1.7 0.00 0.00 0.00 100 1019.0
20260831112421 72 140 0.9 1.7 0.00 0.00 0.00 100 1018.7
20260831112200 72 134 0.9 0.9 0.00 0.00 0.00 100 1018.7
20260831111920 72 123 0.9 0.9 0.00 0.00 0.00 100 1018.7
20260831111420 72 133 0.9 0.9 0.00 0.00 0.00 100 1018.7
20260831111155 72 124 0.9 0.9 0.00 0.00 0.00 100 1018.3
20260831110921 72 147 0.0 1.7 0.00 0.00 0.00 100 1018.3
20260831110419 72 141 0.9 0.9 0.00 0.00 0.00 100 1018.3
20260831110157 73 128 0.0 1.7 0.00 0.00 0.00 100 1018.3
20260831105920 73 158 0.0 2.6 0.00 0.00 0.00 100 1018.3
20260831105421 73 106 0.9 0.9 0.00 0.00 0.00 100 1018.2
20260831105156 73 144 0.9 0.9 0.00 0.00 0.00 100 1018.2
20260831104919 73 114 0.9 1.7 0.00 0.00 0.00 100 1018.2